When you browse on this site, cookies collect data to enhance your experience and personalize the content and advertising you see.
Visit our Privacy Policy to learn more. By continuing to use the site, you agree to this use of cookies and data.
  • In Hungary
  • List of Countries
  • For 7 days
  • Water Temperature
  • Satellite Maps
  • Weather Map
  • News
  • Weather Widgets
  • user-avatar
    Login

    Hourly Weather Kanker

    Today, 20 July, Saturday

    Time Temperature Precipitation Wind Pressure Humidity
    00:00 +26°C° 0.5 mm 0 mps 717 mmHg 84%
    01:00 +25°C° 0.5 mm 0 mps 717 mmHg 85%
    02:00 +25°C° 0.5 mm 0 mps 717 mmHg 87%
    03:00 +25°C° 0.3 mm 0 mps 717 mmHg 88%
    04:00 +24°C° 0.3 mm 0 mps 717 mmHg 89%
    05:00 +24°C° 0 mm 0 mps 717 mmHg 89%
    06:00 +26°C° 0 mm 0 mps 718 mmHg 84%
    07:00 +27°C° 0 mm 0 mps 718 mmHg 78%
    08:00 +29°C° 0 mm 0 mps 718 mmHg 72%
    09:00 +32°C° 0 mm 1 mps 718 mmHg 67%
    10:00 +34°C° 0 mm 1 mps 718 mmHg 62%
    11:00 +35°C° 0 mm 1 mps 719 mmHg 54%
    12:00 +35°C° 0.8 mm 1 mps 718 mmHg 56%
    13:00 +35°C° 0.8 mm 1 mps 718 mmHg 58%
    14:00 +34°C° 0.8 mm 1 mps 717 mmHg 59%
    15:00 +33°C° 2.6 mm 1 mps 717 mmHg 65%
    16:00 +33°C° 2.6 mm 1 mps 716 mmHg 70%
    17:00 +32°C° 2.6 mm 1 mps 716 mmHg 75%
    18:00 +31°C° 0.3 mm 1 mps 717 mmHg 77%
    19:00 +30°C° 0.3 mm 1 mps 717 mmHg 80%
    20:00 +29°C° 0.3 mm 1 mps 717 mmHg 82%
    21:00 +29°C° 0 mm 1 mps 718 mmHg 83%
    22:00 +28°C° 0 mm 1 mps 718 mmHg 84%
    23:00 +28°C° 0 mm 2 mps 718 mmHg 86%

    Tomorrow, 21 July, Sunday

    Time Temperature Precipitation Wind Pressure Humidity
    00:00 +28°C° 0 mm 2 mps 718 mmHg 86%
    01:00 +27°C° 0 mm 2 mps 717 mmHg 87%
    02:00 +27°C° 0 mm 2 mps 717 mmHg 88%
    03:00 +27°C° 0 mm 2 mps 717 mmHg 88%
    04:00 +27°C° 0 mm 2 mps 717 mmHg 89%
    05:00 +26°C° 0 mm 2 mps 717 mmHg 90%
    06:00 +28°C° 0 mm 2 mps 718 mmHg 84%
    07:00 +29°C° 0 mm 3 mps 719 mmHg 78%
    08:00 +31°C° 0 mm 3 mps 719 mmHg 72%
    09:00 +33°C° 0.1 mm 3 mps 719 mmHg 67%
    10:00 +34°C° 0.1 mm 3 mps 719 mmHg 63%
    11:00 +36°C° 0.1 mm 2 mps 719 mmHg 58%
    12:00 +36°C° 0.4 mm 2 mps 719 mmHg 58%
    13:00 +36°C° 0.4 mm 2 mps 718 mmHg 58%
    14:00 +36°C° 0.4 mm 2 mps 717 mmHg 58%
    15:00 +35°C° 0.7 mm 2 mps 717 mmHg 62%
    16:00 +35°C° 0.7 mm 2 mps 717 mmHg 65%
    17:00 +33°C° 0.7 mm 1 mps 716 mmHg 69%
    18:00 +32°C° 0.3 mm 1 mps 717 mmHg 74%
    19:00 +30°C° 0.3 mm 1 mps 718 mmHg 79%
    20:00 +29°C° 0.3 mm 1 mps 718 mmHg 85%
    21:00 +29°C° 0 mm 1 mps 718 mmHg 86%
    22:00 +28°C° 0 mm 1 mps 718 mmHg 86%
    23:00 +28°C° 0 mm 1 mps 718 mmHg 87%

    Day after tomorrow, 22 July, Monday

    Time Temperature Precipitation Wind Pressure Humidity
    00:00 +28°C° 0 mm 1 mps 718 mmHg 88%
    01:00 +28°C° 0 mm 1 mps 718 mmHg 88%
    02:00 +28°C° 0 mm 1 mps 717 mmHg 89%
    03:00 +27°C° 0 mm 1 mps 717 mmHg 89%
    04:00 +27°C° 0 mm 1 mps 717 mmHg 88%
    05:00 +27°C° 0 mm 1 mps 717 mmHg 88%
    06:00 +28°C° 0 mm 1 mps 718 mmHg 82%
    07:00 +30°C° 0 mm 1 mps 718 mmHg 75%
    08:00 +32°C° 0 mm 1 mps 719 mmHg 68%
    09:00 +33°C° 0 mm 1 mps 719 mmHg 62%
    10:00 +35°C° 0 mm 1 mps 719 mmHg 56%
    11:00 +35°C° 0 mm 0 mps 719 mmHg 50%
    12:00 +35°C° 0.3 mm 0 mps 718 mmHg 52%
    13:00 +36°C° 0.3 mm 1 mps 717 mmHg 53%
    14:00 +35°C° 0.3 mm 1 mps 717 mmHg 55%
    15:00 +34°C° 0.8 mm 1 mps 716 mmHg 60%
    16:00 +33°C° 0.8 mm 1 mps 716 mmHg 65%
    17:00 +32°C° 0.8 mm 1 mps 716 mmHg 70%
    18:00 +31°C° 0.3 mm 1 mps 716 mmHg 73%
    19:00 +30°C° 0.3 mm 1 mps 717 mmHg 75%
    20:00 +29°C° 0.3 mm 1 mps 717 mmHg 78%
    21:00 +29°C° 0 mm 1 mps 717 mmHg 79%
    22:00 +29°C° 0 mm 1 mps 717 mmHg 81%
    23:00 +28°C° 0 mm 1 mps 717 mmHg 82%

    23 July, Tuesday

    Time Temperature Precipitation Wind Pressure Humidity
    00:00 +28°C° 0 mm 1 mps 717 mmHg 84%
    01:00 +28°C° 0 mm 1 mps 717 mmHg 85%
    02:00 +28°C° 0 mm 1 mps 716 mmHg 86%
    03:00 +27°C° 0 mm 1 mps 716 mmHg 87%
    04:00 +27°C° 0 mm 1 mps 716 mmHg 88%
    05:00 +25°C° 0 mm 0 mps 716 mmHg 89%
    06:00 +29°C° 0 mm 1 mps 717 mmHg 83%
    07:00 +30°C° 0 mm 1 mps 718 mmHg 77%
    08:00 +32°C° 0 mm 1 mps 718 mmHg 72%
    09:00 +33°C° 0.2 mm 1 mps 718 mmHg 66%
    10:00 +34°C° 0.2 mm 1 mps 718 mmHg 60%
    11:00 +36°C° 0.2 mm 1 mps 718 mmHg 55%
    12:00 +36°C° 0.6 mm 1 mps 717 mmHg 55%
    13:00 +35°C° 0.6 mm 1 mps 716 mmHg 55%
    14:00 +36°C° 0.6 mm 2 mps 716 mmHg 56%
    15:00 +35°C° 0.2 mm 1 mps 715 mmHg 57%
    16:00 +34°C° 0.2 mm 1 mps 715 mmHg 59%
    17:00 +34°C° 0.2 mm 1 mps 715 mmHg 61%
    18:00 +33°C° 0.1 mm 1 mps 715 mmHg 65%
    19:00 +32°C° 0.1 mm 1 mps 716 mmHg 68%
    20:00 +30°C° 0.1 mm 1 mps 716 mmHg 72%
    21:00 +30°C° 0.1 mm 1 mps 717 mmHg 73%
    22:00 +29°C° 0.1 mm 1 mps 717 mmHg 75%
    23:00 +29°C° 0.1 mm 1 mps 717 mmHg 77%

    24 July, Wednesday

    Time Temperature Precipitation Wind Pressure Humidity
    00:00 +28°C° 0 mm 1 mps 716 mmHg 79%
    01:00 +28°C° 0 mm 1 mps 716 mmHg 81%
    02:00 +28°C° 0 mm 1 mps 716 mmHg 83%
    03:00 +28°C° 0 mm 1 mps 716 mmHg 83%
    04:00 +27°C° 0 mm 1 mps 716 mmHg 84%
    05:00 +27°C° 0 mm 1 mps 716 mmHg 84%
    06:00 +29°C° 0.1 mm 1 mps 716 mmHg 79%
    07:00 +30°C° 0.1 mm 1 mps 717 mmHg 74%
    08:00 +32°C° 0.1 mm 1 mps 717 mmHg 70%
    09:00 +32°C° 1.3 mm 1 mps 717 mmHg 69%
    10:00 +33°C° 1.3 mm 1 mps 717 mmHg 67%
    11:00 +33°C° 1.3 mm 1 mps 717 mmHg 66%
    12:00 +33°C° 2.7 mm 1 mps 716 mmHg 67%
    13:00 +33°C° 2.7 mm 1 mps 716 mmHg 68%
    14:00 +33°C° 2.7 mm 1 mps 715 mmHg 69%
    15:00 +32°C° 2.7 mm 1 mps 715 mmHg 72%
    16:00 +32°C° 2.7 mm 1 mps 714 mmHg 74%
    17:00 +31°C° 2.7 mm 1 mps 714 mmHg 77%
    18:00 +30°C° 0.6 mm 1 mps 715 mmHg 79%
    19:00 +29°C° 0.6 mm 1 mps 715 mmHg 81%
    20:00 +29°C° 0.6 mm 1 mps 716 mmHg 83%
    21:00 +28°C° 0.4 mm 1 mps 716 mmHg 85%
    22:00 +28°C° 0.4 mm 1 mps 717 mmHg 87%
    23:00 +27°C° 0.4 mm 2 mps 717 mmHg 89%

    25 July, Thursday

    Time Temperature Precipitation Wind Pressure Humidity
    00:00 +27°C° 0.1 mm 2 mps 716 mmHg 89%
    01:00 +27°C° 0.1 mm 2 mps 716 mmHg 90%
    02:00 +27°C° 0.1 mm 3 mps 716 mmHg 90%
    03:00 +26°C° 0 mm 2 mps 716 mmHg 90%
    04:00 +26°C° 0 mm 2 mps 716 mmHg 91%
    05:00 +26°C° 0 mm 2 mps 716 mmHg 91%
    06:00 +27°C° 0 mm 2 mps 717 mmHg 86%
    07:00 +29°C° 0 mm 3 mps 717 mmHg 82%
    08:00 +30°C° 0 mm 3 mps 718 mmHg 77%
    09:00 +31°C° 0.7 mm 2 mps 718 mmHg 72%
    10:00 +32°C° 0.7 mm 2 mps 717 mmHg 68%
    11:00 +35°C° 0.7 mm 2 mps 717 mmHg 63%
    12:00 +34°C° 1.9 mm 2 mps 716 mmHg 65%
    13:00 +34°C° 1.9 mm 2 mps 716 mmHg 66%
    14:00 +34°C° 1.9 mm 2 mps 715 mmHg 67%
    15:00 +32°C° 3.5 mm 1 mps 715 mmHg 74%
    16:00 +31°C° 3.5 mm 1 mps 715 mmHg 80%
    17:00 +29°C° 3.5 mm 1 mps 715 mmHg 86%
    18:00 +29°C° 0.5 mm 1 mps 715 mmHg 86%
    19:00 +29°C° 0.5 mm 1 mps 716 mmHg 86%
    20:00 +28°C° 0.5 mm 1 mps 716 mmHg 86%
    21:00 +28°C° 0 mm 2 mps 716 mmHg 87%
    22:00 +28°C° 0 mm 2 mps 716 mmHg 87%
    23:00 +27°C° 0 mm 2 mps 716 mmHg 88%
    Show more